sat.trackr.live / text

‹ back to catalog

STARLINK-5456

NORAD 55667 · 2023-021AR

PAYLOAD ACTIVE UNKNOWN

§ Identity

Operator
Country
US
Launch date
2023-02-17
Launch site
AFWTR
Launch vehicle
Mass (kg)
RCS (m²)

Purposes: comms

External: N2YO · Heavens-Above · Gunter

§ Orbital elements

Epoch: 2026-09-20T14:29:10.143168Z

Period
96.11 min
Inclination
70.0009°
Eccentricity
0.0003151
Mean motion
14.98330617 rev/d
Perigee alt
569.9 km
Apogee alt
574.2 km
Semi-major
6,950.2 km
B*
5.0205e-5
RAAN
32.8926°
Arg perigee
277.5680°
Mean anomaly
82.5121°
Rev number
19,847

§ Raw data

STARLINK-54561 55667U 23021AR  26263.60358962  .00000506  00000+0  50205-4 0  99912 55667  70.0009  32.8926 0003151 277.5680  82.5121 14.98330617198472

JSON: /api/v1/satellites/55667 · /tle

For live sub-satellite position, see the globe view (requires WebGL).

§ Visibility from observer

Set your observer location to see the next 7 days of passes ≥ 10°. The values pass through the URL so the page stays shareable.

No JS? Fill the form by hand. The geolocation button needs JavaScript.